CAPE
548 316 364 568 627 492 464 444 417 396 266 361 449 232 248 10 176 232 114 413 739 1143 1247 921 762 503 414 235 437 575 613 768 1055 904 1103 1114 1200 1240 1346 1489 1534 1698 1791
401 457 353 429 485 267 390 425 261 341 172 216 403 422 259 37 162 136 96 187 902 1289 1460 1255 946 585 523 369 330 458 496 663 785 951 1097 1338 1153 1090 1129 1289 1554 1668 1740
279 309 433 571 394 509 311 204 279 239 269 373 431 382 63 36 77 55 52 130 224 1200 1796 1742 826 508 422 435 398 419 491 530 698 952 1477 1362 1033 1178 1031 1057 1196 1437 1592
320 545 801 729 776 631 706 792 674 448 443 302 0 0 19 0 0 0 3 163 678 381 599 1403 1404 148 81 446 437 382 397 311 463 533 796 992 874 1018 1154 1381 1375 1552 1460
485 706 631 549 483 308 355 766 1078 818 509 56 0 0 0 0 0 38 94 179 89 277 523 408 814 13 47 428 880 578 387 261 431 426 457 643 864 853 1333 1557 1495 1392 1729
816 815 715 797 611 458 549 864 882 756 891 725 597 163 0 0 0 0 0 0 1 29 10 17 414 407 387 309 434 789 697 378 475 276 430 765 911 956 1318 1450 1492 1708 1465
841 810 791 842 787 746 720 1007 1063 1182 860 629 258 516 156 0 0 0 0 0 60 93 92 107 55 415 764 1274 977 598 802 755 536 433 252 394 482 588 1054 1218 1301 1415 1585
1215 1189 1320 1241 1085 978 1034 1149 1109 1113 846 964 917 227 338 109 217 572 414 362 385 235 350 554 596 573 520 682 649 1046 1169 1117 678 621 287 274 283 389 555 878 1070 1080 1304
1366 1625 1833 1366 1116 1029 1043 1092 1015 1166 1277 928 1117 733 558 404 331 234 516 452 239 212 224 1110 1081 789 410 261 944 1071 1432 1161 1145 968 713 401 293 187 157 298 694 633 928
1241 1297 1211 1358 1387 1266 1172 1281 1177 1120 1245 1373 1143 1136 456 508 688 828 489 460 315 320 172 1147 1144 860 462 252 789 1149 1570 1407 1525 1179 994 904 311 237 209 231 544 755 824
875 1188 1046 1226 1458 1077 1086 1474 1573 1609 1385 1594 1402 1406 1087 709 595 789 772 841 464 72 185 796 904 762 614 480 506 894 1509 1504 1492 1546 1211 1037 830 455 361 289 220 327 489
1403 1188 1517 1438 1489 1288 1174 1337 1373 1739 1621 1866 1906 1537 1458 1337 962 908 756 446 487 33 118 313 908 929 776 662 897 1054 1556 1663 1342 1322 1473 1357 1041 779 732 727 584 415 302
1219 1236 1327 1817 1742 1486 1363 1405 1516 1625 2138 2168 2189 2011 1378 1497 1094 979 639 625 185 32 35 260 373 943 1073 853 936 1596 1714 1365 1305 1073 997 1012 1126 1248 1031 988 884 730 669
1133 1216 1169 1267 1691 1838 1677 1490 1584 1710 1938 2275 2105 1727 1634 1611 1208 1303 1557 637 342 79 1 213 148 645 1023 1142 1096 1552 1312 1326 1178 896 726 712 704 760 905 970 926 832 951
1260 1122 1073 1143 1461 1833 1800 1595 1619 1749 2034 2204 1983 1910 1552 1606 1328 1297 398 182 154 284 94 107 115 0 0 0 1 288 856 947 958 726 628 440 429 453 447 599 655 626 551
898 993 935 940 1045 1609 1835 1692 1723 1837 1927 1834 1943 1772 1709 1720 1412 1092 189 110 22 78 251 16 60 0 0 7 0 304 619 683 599 561 504 248 134 169 255 305 330 362 400
1103 955 894 831 949 1177 1642 1789 1712 1771 1939 1936 1882 1962 1902 1744 1790 1307 263 3 134 23 176 1 0 0 0 0 0 0 107 57 26 0 2 29 25 17 18 20 34 63 104
961 952 1194 1481 1335 1120 1481 1822 1781 2022 1910 2016 2007 1912 1905 1696 1526 1251 416 0 0 0 0 0 0 0 0 0 0 0 0 0 0 0 0 0 0 0 0 0 0 0 0
1412 984 1013 1306 1588 1575 1524 1773 1959 2034 2020 1992 2016 1938 1933 1792 1415 1088 68 0 0 0 0 0 0 0 0 0 0 0 0 0 0 0 0 0 0 0 0 0 0 0 0
1778 1435 1184 1267 1604 1751 1778 1805 2018 2086 2150 2131 2025 1894 1967 1786 1637 1017 23 0 0 0 0 0 0 0 0 0 0 0 0 0 0 0 0 0 0 0 0 0 0 0 0
1580 1617 1544 1332 1315 1798 1872 2029 2123 2272 2380 2317 2173 2102 2132 1925 1712 1394 339 0 0 0 0 0 0 0 0 0 0 0 0 0 0 0 0 0 0 0 0 0 0 0 0
1478 1574 1581 1428 1502 1738 1943 2035 2134 2305 2563 2629 2601 2580 2513 2195 1603 1017 212 4 0 0 0 0 0 0 0 0 0 0 0 0 0 0 0 0 0 0 0 0 0 0 0
1902 1504 1487 1498 1417 1274 1642 1445 1792 2255 2249 2419 2492 2612 2594 2543 1383 688 110 0 0 0 0 0 0 0 0 0 0 0 0 0 0 0 0 0 0 0 0 0 0 0 0
2024 1897 1550 1418 1352 1327 1187 1010 1070 1929 2028 2122 2244 2301 2336 2191 1169 271 2 0 0 0 0 0 0 0 0 0 0 0 0 0 0 0 0 0 0 0 0 0 0 0 0
1651 1888 1801 1590 1601 1548 1329 611 573 1523 1933 2195 2329 2389 2250 1777 354 0 0 0 0 0 0 0 0 0 0 0 0 0 0 0 0 0 0 0 0 0 0 0 0 0 0
1436 1439 1710 1705 1647 1763 1667 470 309 1436 1935 2351 171 4 0 2 1 1 2 2 0 0 0 0 0 0 0 0 0 0 0 0 0 0 0 0 0 0 0 0 0 0 0
CIN
-133 -164 -149 -129 -122 -124 -131 -135 -129 -160 -165 -171 -156 -147 -127 -59 -152 -137 -202 -83 -29 -5 -0 -3 -0 -0 -0 -2 -5 -0 -2 -0 -0 -0 -0 -0 -0 -0 -0 -0 -0 -0 -0
-161 -156 -161 -149 -153 -187 -169 -161 -171 -198 -200 -221 -182 -151 -131 -249 -207 -218 -268 -209 -61 -32 -9 -1 -0 -0 -0 -0 -0 -3 -3 -6 -0 -0 -0 -0 -0 -0 -0 -0 -0 -0 -0
-178 -172 -169 -135 -171 -179 -202 -218 -213 -233 -233 -219 -143 -132 -182 -340 -332 -355 -363 -271 -228 -92 -36 -20 -0 -42 -0 -0 -0 -3 -10 -8 -0 -0 -0 -0 -0 -0 -0 -0 -0 -0 -0
-182 -153 -122 -127 -139 -176 -161 -142 -153 -172 -192 -234 -0 -0 -398 -124 -0 -0 -171 -260 -156 -181 -148 -45 -2 -4 -58 -0 -0 -0 -2 -1 -4 -2 -3 -0 -0 -0 -0 -0 -0 -0 -0
-174 -139 -156 -169 -184 -218 -203 -136 -109 -128 -184 -218 -0 -0 -0 -0 -0 -343 -283 -239 -302 -249 -177 -146 -38 -63 -125 -12 -0 -0 -0 -1 -4 -4 -1 -1 -0 -0 -0 -0 -0 -0 -0
-117 -134 -161 -144 -176 -209 -177 -146 -139 -139 -134 -176 -200 -323 -0 -0 -0 -0 -0 -0 -21 -398 -99 -67 -122 -57 -31 -47 -5 -0 -0 -0 -0 -5 -0 -0 -0 -0 -0 -0 -0 -0 -0
-131 -147 -162 -154 -182 -169 -159 -143 -138 -107 -138 -229 -302 -206 -336 -0 -0 -0 -0 -0 -395 -332 -314 -277 -313 -134 -47 -9 -6 -2 -0 -0 -0 -2 -1 -5 -4 -10 -0 -0 -0 -0 -0
-128 -146 -127 -121 -150 -170 -164 -146 -148 -109 -157 -175 -126 -309 -170 -224 -264 -220 -278 -280 -247 -302 -210 -179 -181 -142 -116 -50 -35 -1 -0 -0 -0 -0 -4 -8 -3 -2 -2 -1 -0 -0 -0
-116 -117 -104 -118 -149 -197 -171 -161 -161 -127 -86 -170 -163 -178 -171 -152 -286 -307 -187 -237 -308 -322 -304 -155 -151 -143 -146 -137 -17 -0 -0 -0 -0 -0 -0 -0 -0 -4 -6 -4 -1 -2 -1
-138 -134 -138 -146 -138 -169 -175 -147 -161 -150 -140 -80 -145 -168 -298 -241 -136 -96 -214 -226 -262 -239 -284 -146 -146 -157 -178 -189 -97 -42 -0 -1 -0 -0 -0 -0 -2 -0 -0 -0 -0 -0 -1
-168 -141 -161 -157 -134 -188 -201 -135 -105 -102 -143 -93 -95 -95 -129 -216 -241 -151 -119 -129 -227 -316 -334 -210 -171 -186 -195 -209 -183 -121 -46 -20 -0 -0 -0 -0 -0 -0 -0 -0 -0 -1 -0
-116 -159 -127 -132 -132 -165 -194 -165 -147 -115 -117 -76 -76 -104 -84 -72 -127 -137 -159 -199 -160 -229 -338 -284 -163 -159 -186 -199 -159 -137 -84 -55 -42 -13 -0 -0 -0 -0 -0 -0 -0 -0 -5
-171 -160 -161 -118 -137 -156 -167 -174 -151 -130 -83 -72 -71 -76 -141 -108 -153 -144 -190 -173 -229 -329 -308 -264 -268 -164 -134 -169 -157 -85 -60 -61 -52 -58 -47 -22 -8 -0 -0 -0 -0 -0 -0
-179 -159 -205 -205 -150 -130 -148 -161 -143 -123 -98 -73 -79 -110 -99 -116 -159 -135 -73 -167 -163 -290 -19 -195 -292 -188 -141 -128 -115 -73 -68 -52 -61 -74 -76 -67 -61 -48 -20 -8 -5 -2 -0
-181 -209 -234 -237 -181 -144 -152 -167 -149 -119 -91 -83 -87 -102 -132 -129 -170 -157 -305 -346 -242 -115 -208 -242 -199 -0 -0 -0 -8 -159 -128 -89 -60 -90 -95 -121 -118 -92 -69 -50 -32 -20 -19
-251 -247 -279 -274 -236 -176 -153 -163 -141 -126 -113 -115 -105 -110 -124 -116 -129 -174 -332 -355 -386 -258 -108 -139 -184 -0 -0 -185 -0 -162 -120 -107 -103 -93 -98 -158 -190 -160 -118 -96 -76 -54 -35
-231 -275 -287 -307 -269 -215 -179 -162 -160 -120 -110 -105 -117 -115 -114 -108 -91 -154 -330 -95 -321 -292 -153 -13 -0 -0 -0 -0 -0 -0 -53 -292 -264 -0 -43 -49 -149 -125 -120 -30 -97 -91 -77
-336 -321 -281 -235 -249 -256 -224 -186 -172 -114 -128 -106 -99 -122 -118 -116 -123 -159 -282 -0 -0 -0 -0 -0 -0 -0 -0 -0 -0 -0 -0 -0 -0 -0 -0 -0 -0 -0 -0 -0 -0 -0 -0
-301 -401 -384 -312 -244 -243 -248 -219 -188 -161 -149 -137 -112 -119 -117 -115 -154 -197 -501 -0 -0 -0 -0 -0 -0 -0 -0 -0 -0 -0 -0 -0 -0 -0 -0 -0 -0 -0 -0 -0 -0 -0 -0
-251 -350 -407 -375 -285 -238 -228 -215 -186 -169 -154 -144 -133 -126 -114 -130 -131 -192 -560 -0 -0 -0 -0 -0 -0 -0 -0 -0 -0 -0 -0 -0 -0 -0 -0 -0 -0 -0 -0 -0 -0 -0 -0
-313 -287 -297 -392 -365 -244 -230 -210 -184 -155 -142 -131 -125 -114 -104 -129 -137 -160 -378 -0 -0 -0 -0 -0 -0 -0 -0 -0 -0 -0 -0 -0 -0 -0 -0 -0 -0 -0 -0 -0 -0 -0 -0
-377 -347 -336 -368 -396 -302 -250 -245 -205 -173 -138 -100 -85 -97 -99 -128 -165 -226 -335 -92 -0 -0 -0 -0 -0 -0 -0 -0 -0 -0 -0 -0 -0 -0 -0 -0 -0 -0 -0 -0 -0 -0 -0
-347 -402 -400 -373 -389 -441 -343 -380 -325 -192 -181 -147 -127 -109 -90 -74 -184 -247 -435 -0 -0 -0 -0 -0 -0 -0 -0 -0 -0 -0 -0 -0 -0 -0 -0 -0 -0 -0 -0 -0 -0 -0 -0
-324 -355 -395 -398 -405 -417 -430 -510 -487 -246 -224 -206 -166 -150 -124 -148 -258 -355 -218 -0 -0 -0 -0 -0 -0 -0 -0 -0 -0 -0 -0 -0 -0 -0 -0 -0 -0 -0 -0 -0 -0 -0 -0
-358 -337 -357 -393 -372 -394 -424 -645 -647 -332 -239 -225 -190 -154 -128 -165 -315 -0 -0 -0 -0 -0 -0 -0 -0 -0 -0 -0 -0 -0 -0 -0 -0 -0 -0 -0 -0 -0 -0 -0 -0 -0 -0
-387 -390 -345 -355 -380 -371 -372 -747 -787 -316 -189 -144 -536 -0 -0 -0 -0 -0 -0 -0 -0 -0 -0 -0 -0 -0 -0 -0 -0 -0 -0 -0 -0 -0 -0 -0 -0 -0 -0 -0 -0 -0 -0
Wind_Speed
4 3 4 3 3 3 3 4 4 5 4 5 5 4 3 2 4 2 3 14 20 21 21 18 20 20 19 18 18 19 18 17 17 16 15 14 13 12 12 11 11 11 10
4 4 4 4 4 4 4 3 4 4 4 4 6 3 3 4 2 3 2 4 16 18 20 18 20 20 20 20 18 18 18 18 17 17 15 14 13 12 12 11 11 12 11
6 4 4 3 4 4 5 2 4 4 4 4 5 5 1 2 2 4 4 4 7 15 19 17 16 15 16 20 21 19 17 16 17 17 16 14 14 13 12 11 10 10 11
6 5 4 4 4 2 2 3 4 3 3 3 2 3 4 4 4 4 4 5 4 4 6 14 13 12 4 14 20 20 19 17 16 16 15 16 14 13 13 12 10 9 10
6 5 4 4 5 3 2 1 2 1 3 2 3 2 2 4 3 1 5 5 6 5 3 7 9 20 13 13 17 19 21 20 18 14 15 14 14 15 13 11 11 10 9
7 6 4 4 3 1 1 1 1 1 2 3 1 2 3 3 3 4 4 4 5 5 4 5 3 7 21 16 15 16 19 20 19 16 14 13 13 14 14 13 12 11 11
7 6 4 3 2 2 2 2 1 1 2 2 3 3 1 4 4 3 3 4 5 5 4 4 2 3 5 18 19 17 16 20 22 19 16 12 13 12 11 12 13 12 12
6 6 5 4 3 3 3 2 2 2 1 1 1 2 5 6 5 3 2 3 5 2 4 4 4 4 3 4 9 18 19 18 20 20 18 16 14 10 11 11 12 13 13
7 6 6 5 4 3 3 2 2 2 1 2 1 3 3 1 3 3 4 3 6 3 2 5 5 5 5 4 7 12 17 18 20 21 20 19 17 16 16 14 12 12 14
6 6 6 6 5 3 4 3 3 2 2 2 2 2 2 3 1 5 3 4 5 5 3 4 4 4 5 4 6 10 14 15 17 19 21 22 20 20 19 17 15 13 14
6 6 7 6 5 4 4 3 2 3 2 1 1 1 2 2 2 2 3 5 4 4 3 3 3 3 2 3 3 5 10 14 15 16 17 19 21 21 22 22 22 19 18
6 6 6 6 5 5 5 4 2 3 3 2 2 2 2 2 2 2 1 3 2 4 3 2 2 2 2 3 5 7 10 13 15 15 15 16 18 19 20 21 22 24 24
3 7 6 6 5 6 5 4 3 3 3 3 4 3 3 3 1 1 1 1 1 2 3 1 2 2 3 3 3 6 8 8 9 12 13 14 17 18 18 18 19 22 26
5 7 8 6 7 6 6 5 3 4 4 4 4 4 2 2 2 2 1 2 2 3 2 2 2 2 1 2 4 5 4 9 11 9 10 12 12 14 18 18 18 19 21
5 6 7 8 6 6 6 6 4 5 4 4 4 4 4 3 2 2 1 3 4 1 2 2 2 3 1 2 4 3 4 6 7 7 8 10 11 12 13 14 18 20 21
6 6 6 6 6 6 6 6 5 5 5 4 3 4 4 1 1 1 1 3 3 4 3 3 2 2 3 4 5 3 3 4 3 6 8 8 9 11 12 14 15 16 20
7 7 7 7 7 7 7 7 7 6 6 5 4 6 6 3 4 3 3 2 3 3 4 2 1 1 2 2 3 3 1 2 3 3 5 5 6 10 12 13 14 15 16
7 8 7 7 7 7 7 9 10 8 8 7 7 6 7 4 6 4 3 4 3 3 3 3 1 2 2 1 2 3 3 3 2 2 1 4 7 8 8 9 10 11 12
8 7 7 8 8 7 8 9 10 9 8 9 8 8 8 7 6 4 5 5 3 2 2 2 3 1 3 1 2 2 2 3 2 6 7 8 9 10 8 7 8 10 12
11 9 9 8 8 8 9 10 10 9 9 9 10 9 9 9 9 8 7 7 5 5 4 3 2 2 1 2 1 1 3 1 3 3 6 7 7 9 5 5 8 11 12
13 15 11 7 7 9 9 11 11 10 10 9 9 10 10 10 13 11 7 8 9 6 5 5 3 3 3 1 2 1 2 2 3 4 3 4 4 4 5 6 10 12 11
13 12 13 11 9 10 13 16 14 10 10 10 11 12 11 13 11 11 12 15 13 9 5 4 3 3 3 4 3 2 2 1 4 3 0 4 3 6 6 4 11 9 9
11 13 14 13 14 13 15 18 19 11 10 12 13 11 9 7 7 8 13 8 7 4 5 6 4 3 3 3 1 2 3 2 3 5 1 4 2 5 5 5 8 9 10
13 13 12 13 13 13 13 18 19 15 11 13 13 12 10 9 9 7 6 6 6 5 5 4 4 3 2 2 2 2 1 3 4 4 1 3 2 3 3 5 9 8 7
11 13 12 13 15 15 17 18 16 13 13 14 11 9 7 7 4 6 5 4 8 7 10 10 10 9 8 5 4 3 1 2 2 3 2 2 2 4 3 5 7 10 6
13 11 14 14 15 16 12 16 16 9 10 9 6 12 25 22 30 14 12 5 10 2 7 5 2 4 3 2 5 3 2 1 2 3 2 3 3 3 6 3 3 5 8
Wind_Direction
218 203 241 220 232 247 226 255 254 258 254 261 240 233 239 201 258 222 195 238 243 238 239 220 219 207 211 198 190 192 192 190 186 187 193 189 192 192 192 195 194 192 195
216 209 219 247 230 215 230 228 253 271 266 257 276 239 204 235 289 276 293 273 259 239 243 233 227 217 207 196 192 193 191 190 189 189 190 189 193 193 192 193 196 194 195
225 213 189 210 233 225 246 281 272 284 287 271 272 291 267 358 266 257 260 260 258 255 247 250 231 223 221 198 199 198 202 195 189 192 189 190 192 189 196 192 188 194 195
200 196 168 193 201 194 219 214 239 259 283 290 330 322 321 333 309 270 280 286 284 267 276 276 255 124 265 230 206 205 200 198 202 198 189 191 191 193 197 197 191 184 194
184 176 196 202 194 215 213 226 274 195 240 245 227 244 265 277 307 287 263 282 291 298 317 296 289 158 191 218 214 207 203 200 202 191 186 186 192 195 198 197 199 198 196
187 192 200 198 158 162 279 295 259 249 264 296 287 274 241 255 264 250 254 264 287 295 278 258 181 178 185 206 215 215 206 204 204 198 189 189 193 195 194 192 201 197 203
190 189 206 198 194 206 247 307 314 335 349 33 349 340 331 212 243 266 280 291 289 270 257 277 163 170 189 207 212 208 207 198 205 199 197 198 200 201 197 195 201 199 204
190 182 204 207 202 210 236 292 250 349 2 102 86 84 8 337 344 17 349 305 295 311 350 66 124 127 135 164 207 213 209 204 202 202 203 209 211 202 200 201 204 206 208
196 191 195 206 208 201 222 222 200 156 339 327 43 132 46 311 331 329 349 350 354 356 46 89 112 117 141 157 188 199 205 208 205 203 201 210 214 205 212 218 214 215 213
198 201 202 208 206 198 205 213 175 175 142 275 334 85 111 152 74 337 330 342 353 13 18 52 81 107 140 144 164 181 194 201 209 210 206 207 211 215 215 218 220 218 218
202 202 206 202 207 202 231 223 178 188 184 179 223 4 32 47 106 131 291 325 350 357 11 87 112 108 140 135 154 178 195 195 206 217 220 218 213 217 219 223 225 226 228
208 212 209 200 208 205 208 224 204 193 205 209 187 190 178 188 218 155 229 290 277 322 358 77 132 133 156 172 192 192 196 199 202 211 219 223 226 227 231 230 233 227 227
200 213 201 202 203 211 208 206 208 225 213 210 214 223 193 212 159 164 155 302 331 307 328 346 20 186 194 203 232 208 212 211 215 211 214 222 225 227 229 233 234 231 229
207 208 200 202 206 208 205 188 199 214 222 227 235 240 248 233 193 177 201 137 343 344 337 328 334 25 233 222 246 266 218 207 217 220 225 229 229 230 231 230 227 228 232
213 201 200 206 199 206 205 187 207 217 217 227 241 242 224 221 207 178 186 156 158 210 288 288 274 324 347 342 287 281 209 225 222 224 224 233 236 237 245 244 232 225 226
210 201 202 209 205 206 197 187 202 215 216 222 232 230 241 225 191 162 200 197 185 169 206 206 267 314 332 335 317 301 265 227 239 252 267 251 249 256 256 255 253 249 234
207 204 201 207 208 206 198 192 201 208 211 224 231 224 235 203 214 203 197 172 178 158 185 295 226 258 345 341 360 4 356 313 297 278 255 255 249 252 256 267 269 268 262
208 205 200 204 208 208 195 203 204 204 198 209 221 222 226 202 226 208 191 187 191 160 138 199 265 307 211 294 347 56 33 44 54 113 23 238 234 239 245 259 264 255 253
216 210 201 207 205 200 198 209 208 204 204 210 214 209 224 201 218 192 191 182 187 142 128 140 237 277 273 330 12 358 357 336 293 255 253 245 245 244 230 250 275 272 261
223 221 217 212 199 193 202 204 207 207 208 213 218 217 225 214 215 204 186 181 172 165 163 152 198 252 320 319 292 239 315 341 300 295 294 276 288 294 317 289 272 272 273
222 233 229 218 204 201 206 207 208 213 211 215 222 225 228 218 218 200 174 189 177 171 165 165 173 173 204 224 223 276 275 268 274 242 263 286 295 303 306 299 285 280 275
218 224 231 222 200 221 211 201 203 210 213 214 224 231 226 225 230 210 206 189 184 169 174 149 177 189 193 197 192 211 220 303 302 270 98 284 287 286 275 262 258 267 278
220 224 226 226 227 227 208 205 201 212 210 217 223 232 229 225 216 199 204 214 157 134 153 158 173 184 167 192 105 292 258 221 233 274 142 275 247 273 265 269 261 268 287
218 222 228 229 232 236 214 207 203 213 212 220 223 227 223 210 192 174 171 147 143 111 76 61 82 151 148 109 179 192 301 297 289 292 215 247 268 257 285 288 282 274 273
222 226 226 228 228 235 214 206 193 215 220 227 225 222 223 216 210 166 138 138 102 75 61 87 99 99 84 88 108 85 17 35 286 266 269 251 283 293 269 275 276 284 258
228 225 232 230 229 241 217 203 192 211 222 227 70 76 66 65 43 326 106 132 83 7 105 92 144 95 77 71 78 88 155 158 286 310 310 350 329 347 311 279 332 315 312